timestamp,wind_dir_avg,wind_spd_avg,wind_spd_max_dir,wind_spd_gust,battery_voltage,lat,long
2022-10-22 00:04:00+00:00,254.0,9.0,254.0,10.81,12.49,47.59359,-54.27349
2022-10-22 00:14:00+00:00,243.0,6.31,250.0,9.19,12.49,47.59359,-54.27349
2022-10-22 00:24:00+00:00,252.0,7.46,255.0,10.17,12.49,47.59359,-54.27349
2022-10-22 00:34:00+00:00,258.0,7.13,261.0,10.04,12.49,47.59359,-54.27349
2022-10-22 00:44:00+00:00,248.0,5.91,254.0,9.45,12.49,47.59359,-54.27349
2022-10-22 00:54:00+00:00,247.0,4.8,253.0,6.08,12.49,47.59359,-54.27349
2022-10-22 01:04:00+00:00,251.0,7.86,254.0,10.07,12.49,47.59359,-54.27349
2022-10-22 01:14:00+00:00,247.0,5.9,254.0,9.2,12.49,47.59359,-54.27349
2022-10-22 01:24:00+00:00,239.0,6.87,248.0,10.46,12.49,47.59359,-54.27349
2022-10-22 01:34:00+00:00,233.0,5.55,240.0,6.74,12.49,47.59359,-54.27349
2022-10-22 01:44:00+00:00,237.0,5.91,243.0,8.37,12.49,47.59359,-54.27349
2022-10-22 01:54:00+00:00,253.0,6.13,258.0,9.67,12.49,47.59359,-54.27349
2022-10-22 02:04:00+00:00,236.0,4.64,239.0,5.45,12.49,47.59359,-54.27349
2022-10-22 02:14:00+00:00,233.0,4.43,236.0,5.06,12.49,47.59359,-54.27349
2022-10-22 02:24:00+00:00,233.0,3.73,233.0,4.17,12.49,47.59359,-54.27349
2022-10-22 02:34:00+00:00,246.0,4.8,250.0,5.52,12.49,47.59359,-54.27349
2022-10-22 02:44:00+00:00,233.0,4.02,234.0,4.8,12.49,47.59359,-54.27349
2022-10-22 02:54:00+00:00,238.0,4.05,233.0,4.65,12.49,47.59359,-54.27349
2022-10-22 03:04:00+00:00,235.0,5.22,241.0,5.92,12.49,47.59359,-54.27349
2022-10-22 03:14:01+00:00,246.0,4.12,248.0,4.57,12.49,47.59359,-54.27349
2022-10-22 03:24:01+00:00,244.0,4.33,249.0,4.81,12.49,47.59359,-54.27349
2022-10-22 03:34:01+00:00,257.0,4.1,256.0,4.54,12.49,47.59359,-54.27349
2022-10-22 03:44:01+00:00,246.0,4.56,251.0,4.98,12.49,47.59359,-54.27349
2022-10-22 03:54:01+00:00,246.0,4.8,253.0,6.93,12.49,47.59359,-54.27349
2022-10-22 04:04:01+00:00,237.0,5.21,235.0,5.78,12.49,47.59359,-54.27349
2022-10-22 04:14:00+00:00,242.0,5.17,250.0,7.11,12.41,47.59359,-54.27349
2022-10-22 04:24:00+00:00,238.0,4.24,239.0,5.97,12.41,47.59359,-54.27349
2022-10-22 04:34:00+00:00,246.0,5.56,255.0,9.9,12.41,47.59359,-54.27349
2022-10-22 04:44:00+00:00,247.0,4.59,249.0,5.24,12.41,47.59359,-54.27349
2022-10-22 04:54:00+00:00,262.0,7.79,265.0,9.87,12.41,47.59359,-54.27349
2022-10-22 05:04:00+00:00,261.0,7.78,262.0,9.99,12.41,47.59359,-54.27349
2022-10-22 05:14:00+00:00,262.0,9.06,261.0,10.45,12.41,47.59359,-54.27349
2022-10-22 05:24:00+00:00,260.0,6.54,261.0,9.82,12.41,47.59359,-54.27349
2022-10-22 05:34:00+00:00,276.0,7.3,274.0,10.0,12.41,47.59359,-54.27349
2022-10-22 05:44:00+00:00,275.0,6.33,274.0,9.3,12.41,47.59359,-54.27349
2022-10-22 05:54:00+00:00,272.0,4.57,275.0,5.2,12.41,47.59359,-54.27349
2022-10-22 06:04:00+00:00,291.0,4.47,292.0,4.96,12.41,47.59359,-54.27349
2022-10-22 06:14:00+00:00,278.0,3.25,286.0,3.71,12.41,47.59359,-54.27349
2022-10-22 06:24:00+00:00,278.0,3.52,279.0,4.03,12.41,47.59359,-54.27349
2022-10-22 06:34:00+00:00,278.0,3.85,285.0,4.22,12.41,47.59359,-54.27349
2022-10-22 06:44:00+00:00,262.0,3.01,265.0,3.42,12.41,47.59359,-54.27349
2022-10-22 06:54:00+00:00,254.0,3.1,257.0,3.37,12.41,47.59359,-54.27349
2022-10-22 07:04:00+00:00,252.0,3.06,254.0,3.42,12.41,47.59359,-54.27349
2022-10-22 07:14:00+00:00,238.0,3.58,237.0,3.91,12.33,47.59359,-54.27349
2022-10-22 07:24:00+00:00,233.0,3.42,231.0,4.06,12.33,47.59359,-54.27349
2022-10-22 07:34:00+00:00,248.0,3.38,246.0,3.72,12.33,47.59359,-54.27349
2022-10-22 07:44:00+00:00,243.0,3.09,242.0,3.52,12.33,47.59359,-54.27349
2022-10-22 07:54:00+00:00,237.0,3.21,237.0,3.5,12.33,47.59359,-54.27349
2022-10-22 08:04:00+00:00,230.0,3.57,227.0,3.93,12.33,47.59359,-54.27349
2022-10-22 08:14:01+00:00,220.0,3.89,221.0,4.29,12.41,47.59359,-54.27349
2022-10-22 08:24:01+00:00,225.0,3.86,221.0,4.23,12.41,47.59359,-54.27349
2022-10-22 08:34:01+00:00,248.0,3.12,237.0,3.85,12.41,47.59359,-54.27349
2022-10-22 08:44:01+00:00,240.0,3.29,237.0,3.96,12.41,47.59359,-54.27349
2022-10-22 08:54:01+00:00,236.0,3.74,238.0,3.94,12.41,47.59359,-54.27349
2022-10-22 09:04:01+00:00,239.0,3.4,243.0,3.7,12.41,47.59359,-54.27349
2022-10-22 09:14:00+00:00,232.0,3.61,233.0,3.93,12.33,47.59359,-54.27349
2022-10-22 09:24:00+00:00,231.0,4.09,230.0,4.42,12.33,47.59359,-54.27349
2022-10-22 09:34:00+00:00,229.0,3.98,231.0,4.34,12.33,47.59359,-54.27349
2022-10-22 09:44:00+00:00,222.0,4.21,223.0,4.82,12.33,47.59359,-54.27349
2022-10-22 09:54:00+00:00,224.0,4.36,225.0,4.77,12.33,47.59359,-54.27349
2022-10-22 10:04:00+00:00,219.0,4.33,218.0,4.6,12.33,47.59359,-54.27349
2022-10-22 10:14:01+00:00,234.0,4.41,230.0,4.82,12.33,47.59359,-54.27349
2022-10-22 10:24:01+00:00,228.0,4.29,226.0,4.74,12.33,47.59359,-54.27349
2022-10-22 10:34:01+00:00,241.0,4.39,242.0,4.79,12.33,47.59359,-54.27349
2022-10-22 10:44:01+00:00,239.0,3.77,242.0,4.36,12.33,47.59359,-54.27349
2022-10-22 10:54:01+00:00,244.0,3.91,239.0,4.48,12.33,47.59359,-54.27349
2022-10-22 11:04:01+00:00,246.0,4.52,241.0,5.03,12.33,47.59359,-54.27349
2022-10-22 11:14:00+00:00,240.0,4.89,242.0,5.39,13.92,47.59359,-54.27349
2022-10-22 11:24:00+00:00,239.0,4.81,239.0,5.17,13.92,47.59359,-54.27349
2022-10-22 11:34:00+00:00,234.0,4.8,235.0,5.21,13.92,47.59359,-54.27349
2022-10-22 11:44:00+00:00,235.0,4.96,232.0,5.33,13.92,47.59359,-54.27349
2022-10-22 11:54:00+00:00,225.0,5.42,217.0,6.29,13.92,47.59359,-54.27349
2022-10-22 12:04:00+00:00,225.0,5.74,222.0,6.65,13.92,47.59359,-54.27349
2022-10-22 12:14:01+00:00,224.0,6.18,222.0,6.84,14.4,47.59359,-54.27349
2022-10-22 12:24:01+00:00,231.0,5.45,233.0,6.77,14.4,47.59359,-54.27349
2022-10-22 12:34:01+00:00,230.0,4.86,229.0,5.56,14.4,47.59359,-54.27349
2022-10-22 12:44:01+00:00,230.0,4.49,226.0,4.93,14.4,47.59359,-54.27349
2022-10-22 12:54:01+00:00,227.0,5.43,229.0,6.21,14.4,47.59359,-54.27349
2022-10-22 13:04:01+00:00,225.0,5.41,217.0,6.3,14.4,47.59359,-54.27349
2022-10-22 13:14:01+00:00,234.0,4.94,235.0,5.81,14.32,47.59359,-54.27349
2022-10-22 13:24:01+00:00,232.0,4.79,235.0,5.38,14.32,47.59359,-54.27349
2022-10-22 13:34:01+00:00,234.0,4.47,233.0,5.06,14.32,47.59359,-54.27349
2022-10-22 13:44:01+00:00,231.0,4.13,237.0,4.73,14.32,47.59359,-54.27349
2022-10-22 13:54:01+00:00,228.0,4.12,228.0,4.8,14.32,47.59359,-54.27349
2022-10-22 14:04:01+00:00,217.0,4.19,218.0,4.63,14.32,47.59359,-54.27349
2022-10-22 14:14:01+00:00,208.0,4.77,212.0,5.61,14.4,47.59359,-54.27349
2022-10-22 14:24:01+00:00,218.0,4.03,221.0,4.38,14.4,47.59359,-54.27349
2022-10-22 14:34:01+00:00,223.0,3.76,228.0,4.31,14.4,47.59359,-54.27349
2022-10-22 14:44:01+00:00,204.0,4.15,203.0,4.95,14.4,47.59359,-54.27349
2022-10-22 14:54:01+00:00,206.0,5.01,209.0,5.7,14.4,47.59359,-54.27349
2022-10-22 15:04:01+00:00,206.0,5.84,207.0,6.39,14.4,47.59359,-54.27349
2022-10-22 15:14:01+00:00,213.0,6.65,210.0,7.24,14.32,47.59359,-54.27349
2022-10-22 15:24:01+00:00,209.0,7.69,207.0,8.49,14.32,47.59359,-54.27349
2022-10-22 15:34:01+00:00,208.0,7.96,210.0,8.51,14.32,47.59359,-54.27349
2022-10-22 15:44:01+00:00,207.0,8.54,206.0,9.34,14.32,47.59359,-54.27349
2022-10-22 15:54:01+00:00,203.0,8.24,198.0,9.05,14.32,47.59359,-54.27349
2022-10-22 16:04:01+00:00,205.0,8.09,207.0,9.14,14.32,47.59359,-54.27349
2022-10-22 16:14:01+00:00,203.0,7.9,207.0,8.87,13.84,47.59359,-54.27349
2022-10-22 16:24:01+00:00,206.0,8.89,204.0,9.63,13.84,47.59359,-54.27349
2022-10-22 16:34:01+00:00,204.0,9.13,205.0,10.72,13.84,47.59359,-54.27349
2022-10-22 16:44:01+00:00,207.0,9.48,203.0,10.26,13.84,47.59359,-54.27349
2022-10-22 16:54:01+00:00,203.0,9.9,203.0,10.79,13.84,47.59359,-54.27349
2022-10-22 17:04:01+00:00,208.0,9.27,223.0,11.01,13.84,47.59359,-54.27349
2022-10-22 17:14:00+00:00,219.0,11.04,227.0,13.06,14.16,47.59359,-54.27349
2022-10-22 17:24:00+00:00,222.0,11.7,223.0,13.11,14.16,47.59359,-54.27349
2022-10-22 17:34:00+00:00,212.0,10.16,225.0,11.83,14.16,47.59359,-54.27349
2022-10-22 17:44:00+00:00,216.0,10.09,230.0,12.69,14.16,47.59359,-54.27349
2022-10-22 17:54:00+00:00,222.0,11.12,225.0,13.07,14.16,47.59359,-54.27349
2022-10-22 18:04:00+00:00,213.0,9.56,227.0,12.14,14.16,47.59359,-54.27349
2022-10-22 18:14:00+00:00,213.0,9.65,218.0,11.56,14.32,47.59359,-54.27349
2022-10-22 18:24:00+00:00,211.0,9.2,222.0,10.66,14.32,47.59359,-54.27349
2022-10-22 18:34:00+00:00,212.0,9.3,221.0,10.63,14.32,47.59359,-54.27349
2022-10-22 18:44:00+00:00,221.0,10.45,228.0,12.48,14.32,47.59359,-54.27349
2022-10-22 18:54:00+00:00,215.0,8.68,224.0,10.99,14.32,47.59359,-54.27349
2022-10-22 19:04:00+00:00,214.0,8.19,224.0,9.36,14.32,47.59359,-54.27349
2022-10-22 19:14:01+00:00,215.0,8.37,224.0,9.76,13.84,47.59359,-54.27349
2022-10-22 19:24:01+00:00,217.0,9.1,225.0,10.61,13.84,47.59359,-54.27349
2022-10-22 19:34:01+00:00,223.0,7.54,223.0,9.08,13.84,47.59359,-54.27349
2022-10-22 19:44:01+00:00,226.0,7.31,227.0,9.13,13.84,47.59359,-54.27349
2022-10-22 19:54:01+00:00,230.0,6.97,232.0,8.23,13.84,47.59359,-54.27349
2022-10-22 20:04:01+00:00,224.0,7.15,230.0,8.43,13.84,47.59359,-54.27349
2022-10-22 20:14:00+00:00,232.0,5.57,238.0,6.63,13.68,47.59359,-54.27349
2022-10-22 20:24:00+00:00,234.0,6.53,228.0,7.79,13.68,47.59359,-54.27349
2022-10-22 20:34:00+00:00,236.0,5.91,238.0,6.85,13.68,47.59359,-54.27349
2022-10-22 20:44:00+00:00,232.0,4.82,233.0,5.71,13.68,47.59359,-54.27349
2022-10-22 20:54:00+00:00,242.0,5.23,251.0,6.25,13.68,47.59359,-54.27349
2022-10-22 21:04:00+00:00,255.0,3.17,249.0,4.04,13.68,47.59359,-54.27349
2022-10-22 21:14:01+00:00,249.0,3.64,252.0,4.04,12.89,47.59359,-54.27349
2022-10-22 21:24:01+00:00,242.0,5.48,244.0,6.77,12.89,47.59359,-54.27349
2022-10-22 21:34:01+00:00,243.0,6.65,242.0,7.8,12.89,47.59359,-54.27349
2022-10-22 21:44:01+00:00,255.0,6.24,257.0,8.0,12.89,47.59359,-54.27349
2022-10-22 21:54:01+00:00,255.0,4.88,257.0,7.83,12.89,47.59359,-54.27349
2022-10-22 22:04:01+00:00,254.0,8.62,258.0,9.98,12.89,47.59359,-54.27349
2022-10-22 22:14:00+00:00,251.0,4.7,253.0,5.17,12.57,47.59359,-54.27349
2022-10-22 22:24:00+00:00,244.0,5.5,246.0,7.64,12.57,47.59359,-54.27349
2022-10-22 22:34:00+00:00,254.0,8.19,257.0,10.67,12.57,47.59359,-54.27349
2022-10-22 22:44:00+00:00,243.0,4.98,248.0,5.78,12.57,47.59359,-54.27349
2022-10-22 22:54:00+00:00,237.0,5.63,243.0,7.73,12.57,47.59359,-54.27349
2022-10-22 23:04:00+00:00,237.0,5.9,247.0,8.57,12.57,47.59359,-54.27349
2022-10-22 23:14:00+00:00,248.0,9.35,247.0,10.95,12.49,47.59359,-54.27349
2022-10-22 23:24:00+00:00,250.0,9.61,249.0,10.97,12.49,47.59359,-54.27349
2022-10-22 23:34:00+00:00,243.0,8.48,246.0,10.87,12.49,47.59359,-54.27349
2022-10-22 23:44:00+00:00,248.0,8.35,253.0,10.55,12.49,47.59359,-54.27349
2022-10-22 23:54:00+00:00,246.0,9.17,247.0,10.8,12.49,47.59359,-54.27349
